FW0286 Weather Reports


time (UTC)temp
C
wind
direction
speed
KPH
gust
KPH
rain 1hr
cm
rain 24hr
cm
rain mn
cm
humidity
%
barometer
mb
20260503190049 21 11 0.0 0.0 0.00 0.00 0.00 38 1018.3
20260503185550 20 12 0.0 0.0 0.00 0.00 0.00 38 1018.4
20260503185535 20 12 0.0 1.6 0.00 0.00 0.00 46 1018.5
20260503185139 20 12 0.0 0.0 0.00 0.00 0.00 40 1018.4
20260503184018 20 12 0.0 1.6 0.00 0.00 0.00 43 1018.5
20260503183518 19 12 0.0 0.0 0.00 0.00 0.00 48 1018.5
20260503183008 20 12 0.0 0.0 0.00 0.00 0.00 44 1018.6
20260503182503 19 12 0.0 0.0 0.00 0.00 0.00 46 1018.7
20260503181951 18 12 0.0 0.0 0.00 0.00 0.00 47 1018.8
20260503181449 18 12 0.0 0.0 0.00 0.00 0.00 46 1018.9
20260503180940 18 11 0.0 0.0 0.00 0.00 0.00 45 1018.9
20260503180934 18 12 0.0 0.0 0.00 0.00 0.00 44 1019.1
20260503175926 18 12 0.0 0.0 0.00 0.00 0.00 49 1019.1
20260503175916 18 12 0.0 0.0 0.00 0.00 0.00 50 1019.1
20260503175356 17 12 0.0 0.0 0.00 0.00 0.00 46 1019.0
20260503175006 17 12 0.0 1.6 0.00 0.00 0.00 47 1019.1
20260503173850 18 12 0.0 1.6 0.00 0.00 0.00 53 1019.2
20260503173334 17 11 0.0 1.6 0.00 0.00 0.00 48 1019.1
20260503172834 17 12 0.0 1.6 0.00 0.00 0.00 45 1019.3
20260503172323 18 11 0.0 0.0 0.00 0.00 0.00 47 1019.4
20260503171822 18 11 0.0 0.0 0.00 0.00 0.00 46 1019.4
20260503171318 18 12 0.0 0.0 0.00 0.00 0.00 45 1019.5
20260503170810 17 12 0.0 0.0 0.00 0.00 0.00 50 1019.5
20260503170302 17 12 0.0 0.0 0.00 0.00 0.00 47 1019.6
20260503150510 16 12 0.0 0.0 0.00 0.08 0.00 50 1020.5
20260503150500 16 11 0.0 0.0 0.00 0.08 0.00 47 1020.6
20260503131226 13 12 0.0 0.0 0.00 0.18 0.00 62 1020.1
20260503130726 14 11 0.0 0.0 0.00 0.20 0.00 62 1020.0
20260503130227 13 12 0.0 0.0 0.00 0.23 0.00 63 1020.0
20260503120132 11 12 0.0 0.0 0.00 0.38 0.00 73 1019.7
20260503110616 7 12 0.0 0.0 0.00 0.41 0.00 95 1018.8
20260503110116 7 11 0.0 0.0 0.00 0.41 0.00 96 1018.7
20260503090354 9 12 0.0 0.0 0.00 0.71 0.00 97 1017.1
20260503081240 8 12 0.0 0.0 0.00 0.84 0.00 97 1016.6
20260503080730 8 12 0.0 0.0 0.00 0.84 0.00 96 1016.6
20260503080220 8 12 0.0 0.0 0.00 0.86 0.00 96 1016.5
20260503072551 8 12 0.0 0.0 0.00 0.86 0.00 96 1016.2
20260503072052 8 12 0.0 0.0 0.00 0.86 0.00 96 1016.1
20260503071552 8 12 0.0 0.0 0.00 0.86 0.00 96 1016.1
20260503071046 8 12 0.0 0.0 0.00 0.86 0.00 96 1016.1
20260503070541 8 12 0.0 0.0 0.00 0.86 0.00 96 1016.1
20260503060255 9 12 0.0 0.0 0.00 0.86 0.00 95 1015.9
20260503054750 10 12 0.0 0.0 0.00 0.86 0.00 95 1016.0
20260503054253 10 12 0.0 0.0 0.00 0.86 0.00 95 1016.0
20260503054232 10 12 0.0 0.0 0.00 0.86 0.00 96 1016.0
20260503053230 10 12 0.0 0.0 0.00 0.86 0.00 95 1015.9
20260503052715 10 12 0.0 0.0 0.00 0.86 0.00 95 1015.8
20260503052213 10 12 0.0 0.0 0.00 0.86 0.00 95 1015.8
20260503051636 10 12 0.0 0.0 0.00 0.86 0.00 95 1015.8
20260503051127 10 12 0.0 0.0 0.00 0.86 0.00 95 1015.7
20260503051119 10 12 0.0 0.0 0.00 0.86 0.00 95 1015.8
20260503050117 10 12 0.0 0.0 0.00 0.86 0.00 95 1015.7
20260503045556 10 12 0.0 0.0 0.00 0.86 0.00 95 1015.6
20260503045551 10 12 0.0 0.0 0.00 0.86 0.00 95 1015.6
20260503044540 10 12 0.0 0.0 0.00 0.86 0.00 95 1015.7
20260503044026 10 12 0.0 0.0 0.00 0.86 0.00 95 1015.7
20260503043517 10 12 0.0 0.0 0.00 0.86 0.00 94 1015.7
20260503043001 10 12 0.0 0.0 0.00 0.86 0.00 94 1015.7
20260503042449 10 12 0.0 0.0 0.00 0.86 0.00 94 1015.6
20260503041927 10 12 0.0 0.0 0.00 0.86 0.00 94 1015.6
20260503041900 10 12 0.0 0.0 0.00 0.86 0.00 94 1015.6
20260503041350 10 12 0.0 0.0 0.00 0.86 0.00 94 1015.6
20260503040334 10 12 0.0 0.0 0.00 0.86 0.00 94 1015.5
20260503035757 10 12 0.0 0.0 0.00 0.86 0.86 94 1015.7
20260503035255 10 12 0.0 0.0 0.00 0.86 0.86 94 1015.7
20260503034740 10 12 0.0 0.0 0.00 0.86 0.86 94 1015.5
20260503034205 10 12 0.0 0.0 0.00 0.86 0.86 94 1015.6
20260503033657 10 12 0.0 0.0 0.00 0.86 0.86 94 1015.4
20260503033647 10 12 0.0 0.0 0.00 0.86 0.86 93 1015.4
20260503032637 10 12 0.0 0.0 0.00 0.86 0.86 93 1015.3
20260503032133 10 12 0.0 0.0 0.00 0.86 0.86 94 1015.3
20260503031555 10 12 0.0 0.0 0.00 0.86 0.86 94 1015.3
20260503031059 10 12 0.0 0.0 0.00 0.86 0.86 94 1015.3
20260503031055 10 12 0.0 0.0 0.00 0.86 0.86 94 1015.4
20260503030551 10 12 0.0 0.0 0.00 0.86 0.86 94 1015.1
20260503025526 10 12 0.0 0.0 0.00 0.86 0.86 95 1014.9
20260503024949 10 12 0.0 0.0 0.00 0.86 0.86 95 1015.0
20260503024413 10 12 0.0 0.0 0.00 0.86 0.86 95 1014.9
20260503023851 10 12 0.0 0.0 0.00 0.86 0.86 95 1014.8
20260503023341 10 12 0.0 0.0 0.00 0.86 0.86 95 1014.7
20260503022821 10 12 0.0 0.0 0.00 0.86 0.86 95 1014.6
20260503022321 10 12 0.0 0.0 0.00 0.86 0.86 95 1014.4
20260503021805 10 12 0.0 0.0 0.00 0.86 0.86 94 1014.4
20260503021251 10 12 0.0 0.0 0.00 0.86 0.86 94 1014.4
20260503020743 10 12 0.0 0.0 0.00 0.86 0.86 94 1014.3
20260503020231 10 12 0.0 0.0 0.00 0.86 0.86 94 1014.2
20260503015731 10 12 0.0 0.0 0.00 0.86 0.86 94 1014.1
20260503015217 10 12 0.0 0.0 0.00 0.86 0.86 94 1013.9
20260503014708 10 12 0.0 0.0 0.00 0.86 0.86 94 1013.9
20260503014153 10 12 0.0 0.0 0.00 0.86 0.86 94 1013.9
20260503013655 10 12 0.0 0.0 0.00 0.86 0.86 93 1013.9
20260503013154 10 12 0.0 0.0 0.00 0.86 0.86 92 1013.6
20260503013149 10 11 0.0 0.0 0.00 0.86 0.86 93 1013.7
20260503012641 10 12 0.0 0.0 0.00 0.86 0.86 92 1013.7
20260503011627 11 12 0.0 0.0 0.00 0.86 0.86 92 1013.5
20260503011617 11 12 0.0 0.0 0.00 0.86 0.86 92 1013.4
20260503010609 11 12 0.0 0.0 0.00 0.86 0.86 92 1013.3
20260503010059 11 12 0.0 0.0 0.00 0.86 0.86 90 1013.0
20260503010055 11 12 0.0 0.0 0.00 0.86 0.86 92 1013.3
20260503005552 11 12 0.0 0.0 0.00 0.86 0.86 91 1013.3
20260503004539 12 12 0.0 0.0 0.00 0.86 0.86 90 1012.9
20260503004029 12 12 0.0 0.0 0.00 0.86 0.86 88 1013.0
20260503004024 12 12 0.0 0.0 0.00 0.86 0.86 86 1013.0
20260503003029 12 12 0.0 0.0 0.00 0.86 0.86 85 1013.0
20260503003025 12 12 0.0 0.0 0.00 0.86 0.86 85 1013.0
20260503002006 12 12 0.0 0.0 0.00 0.86 0.86 80 1012.9
20260503001509 13 12 0.0 0.0 0.00 0.86 0.86 79 1012.7
20260503001001 13 12 0.0 0.0 0.00 0.86 0.86 76 1012.7
20260503000453 14 12 0.0 0.0 0.00 0.86 0.86 69 1012.7
20260502235940 14 12 0.0 0.0 0.00 0.86 0.86 64 1012.6
20260502235407 15 12 0.0 0.0 0.00 0.86 0.86 65 1012.5
20260502235401 15 11 0.0 0.0 0.00 0.86 0.86 64 1012.2
20260502235011 15 12 0.0 0.0 0.00 0.86 0.86 66 1012.3
20260502234856 15 12 0.0 0.0 0.00 0.86 0.86 67 1012.4
20260502233851 15 11 0.0 0.0 0.00 0.86 0.86 65 1012.3
20260502232847 15 12 0.0 0.0 0.00 0.86 0.86 66 1012.3
20260502232347 15 12 0.0 0.0 0.00 0.86 0.86 62 1012.2
20260502231841 15 12 0.0 0.0 0.00 0.86 0.86 62 1012.1
20260502231343 15 12 0.0 0.0 0.00 0.86 0.86 65 1012.1
20260502230816 15 12 0.0 3.2 0.00 0.86 0.86 63 1012.0
20260502230302 15 12 0.0 3.2 0.00 0.86 0.86 65 1012.1
20260502225803 15 11 0.0 0.0 0.00 0.86 0.86 72 1012.1
20260502225759 15 12 0.0 0.0 0.00 0.86 0.86 63 1012.1
20260502225257 15 12 0.0 0.0 0.00 0.86 0.86 67 1012.1
20260502224254 15 11 0.0 0.0 0.00 0.86 0.86 72 1012.1
20260502223759 15 12 0.0 0.0 0.00 0.86 0.86 71 1012.1
20260502223754 15 11 0.0 0.0 0.00 0.86 0.86 70 1012.1
20260502222755 15 12 0.0 0.0 0.00 0.86 0.86 69 1012.1
20260502222250 15 11 0.0 0.0 0.00 0.86 0.86 73 1012.1
20260502221750 15 12 0.0 0.0 0.00 0.86 0.86 72 1012.2
20260502221249 15 11 0.0 0.0 0.00 0.86 0.86 72 1012.1
20260502220749 15 12 0.0 0.0 0.00 0.86 0.86 72 1012.1
20260502220249 15 12 0.0 0.0 0.00 0.86 0.86 71 1012.1
20260502215751 15 12 0.0 0.0 0.00 0.86 0.86 72 1012.1
20260502215729 15 12 0.0 0.0 0.00 0.86 0.86 75 1012.0
20260502214725 14 12 0.0 0.0 0.00 0.86 0.86 74 1012.0
20260502214209 14 12 0.0 0.0 0.00 0.86 0.86 73 1012.0
20260502213656 14 12 0.0 0.0 0.00 0.86 0.86 74 1012.0
20260502213151 14 12 0.0 0.0 0.00 0.86 0.86 73 1011.8
20260502212652 14 12 0.0 0.0 0.00 0.86 0.86 76 1011.8
20260502212145 14 12 0.0 0.0 0.00 0.86 0.86 76 1011.7
20260502212140 14 12 0.0 0.0 0.00 0.86 0.86 76 1011.7
20260502211141 14 12 0.0 0.0 0.00 0.86 0.86 76 1011.7
20260502210631 14 11 0.0 0.0 0.00 0.86 0.86 75 1011.8
20260502210137 13 11 0.0 0.0 0.00 0.86 0.86 76 1011.8
20260502210133 14 11 0.0 0.0 0.00 0.86 0.86 77 1011.8
20260502205133 13 12 0.0 0.0 0.00 0.86 0.86 76 1011.9
20260502204632 13 12 0.0 0.0 0.00 0.86 0.86 76 1011.9
20260502204627 13 12 0.0 0.0 0.00 0.86 0.86 77 1011.9
20260502203626 13 12 0.0 0.0 0.00 0.86 0.86 75 1012.0
20260502203113 13 12 0.0 0.0 0.00 0.86 0.86 75 1012.0
20260502203107 13 12 0.0 0.0 0.00 0.86 0.86 77 1011.9
20260502202712 13 12 0.0 0.0 0.00 0.86 0.86 76 1012.0
20260502201557 13 12 0.0 0.0 0.00 0.86 0.86 76 1011.9
20260502201049 13 12 0.0 3.2 0.00 0.86 0.86 77 1012.0
20260502200538 13 12 0.0 3.2 0.00 0.86 0.86 77 1012.1
20260502200034 13 12 0.0 0.0 0.00 0.86 0.86 77 1012.1
20260502195527 13 12 0.0 1.6 0.00 0.86 0.86 75 1012.1
20260502195025 13 12 0.0 1.6 0.00 0.86 0.86 77 1012.2
20260502194513 13 11 0.0 0.0 0.00 0.86 0.86 76 1012.2
20260502194014 13 11 0.0 0.0 0.00 0.86 0.86 75 1012.3
20260502193514 13 12 0.0 6.4 0.00 0.86 0.86 78 1012.4
20260502193012 13 12 0.0 6.4 0.00 0.86 0.86 76 1012.6
20260502192512 13 12 0.0 0.0 0.00 0.86 0.86 77 1012.5
20260502191958 13 11 0.0 0.0 0.00 0.86 0.86 78 1012.5
20260502191457 13 11 0.0 0.0 0.00 0.86 0.86 75 1012.6
20260502190953 13 11 0.0 0.0 0.00 0.86 0.86 76 1012.5
20260502190455 13 12 0.0 0.0 0.00 0.86 0.86 78 1012.5